Powrót do katalogu

ISIS 1 DEB

AktywnyPO
NORAD 31999·DEBRIS·🇨🇦 Canada

Wystrzelony Jan 30, 1969 z Vandenberg Space Force Base

Loading…

Następne Przeloty (najbliższe 24 godziny)

TLE

ŚwieżeSource: Space-Track

Epoka: Sep 13, 2026, 11:16 UTC

1 31999U 69009C   26256.47013869  .00006167  00000-0  30452-2 0  9990
2 31999  88.3779  79.5215 1213883 268.3179  77.8851 12.37444036819813

Śledź ISIS 1 DEB w czasie rzeczywistym z AllMySat

Download on the App Store